Location: Austin
(30.3000°N, 97.7500°W)
Time: 12:03:02
(UTC-05:00)

MINOTAUR 4 R/B - Pass Details

Date: 26 May 2023
Orbit: 439 x 447 km, 98.0° (Epoch: 31 May)

Event Time Altitude Azimuth Distance (km) Brightness Sun altitude
Rises 20:56:24 0° 12° (NNE) 2,429 7.9 -6.9°
Reaches altitude 10° 20:58:25 10° 13° (NNE) 1,556 6.9 -7.3°
Maximum altitude 21:01:46 87° 105° (ESE) 445 3.8 -7.9°
Drops below altitude 10° 21:05:04 10° 192° (SSW) 1,550 6.4 -8.5°
Sets 21:07:05 0° 192° (SSW) 2,416 7.4 -8.9°
